Location: Asheville, NC
(35.6000°N, 82.5500°W)
Time: 02:44:02
(UTC-05:00)

CUTE-I - Pass Details

Date: 17 February 2018
Orbit: 811 x 825 km, 98.7° (Epoch: 18 February)

Event Time Altitude Azimuth Distance (km) Brightness Sun altitude
Rises 18:37:45 0° 184° (S) 3,313 ? -5.5°
Reaches altitude 10° 18:40:12 10° 191° (S) 2,386 ? -6.0°
Maximum altitude 18:45:10 42° 261° (W) 1,149 ? -7.0°
Drops below altitude 10° 18:50:11 10° 332° (NNW) 2,405 ? -8.0°
Sets 18:52:40 0° 339° (NNW) 3,342 ? -8.5°
